438P/Christensen (2005)

Japanese version
Home page
Updated on January 26, 2022

---------------------------------------------------------------------

* Profile

Designation 438P/2005 T2
Discovery Date October 7, 2005
Magnitude 19.9 mag
Discoverer Eric Christensen (Mt. Lemmon Survey)

* Orbital Elements

                    Epoch = 2005 Apr. 20.0 TT
     T = 2005 Apr. 11.35661 TT        Peri. =  58.37421
     e = 0.4216303                    Node  = 260.62685 2000.0
     q = 2.2113761 AU                 Incl. =   8.33731
       a =  3.8234650 AU   n = 0.13183126   P =   7.48 years

* Magnitudes Graph

        m1 = 15.0 + 5 log d + 10.0 log r

---------------------------------------------------------------------

The orbital elements are printed on CBET 5074.
The magnitudes graphs are made with Comet for Windows.

---------------------------------------------------------------------

Copyright(C) Seiichi Yoshida (comet@aerith.net). All rights reserved.